Home   Weather   Ponta Delgada   Past weeks

Flag for Portugal Past Weather in Ponta Delgada, Azores, Portugal — Yesterday and Last 2 Weeks

Now
59 °F

Passing clouds.


Feels Like: 58 °F
Forecast: 58 / 63 °F
Wind: 8 mph from West

Location: Ponta Delgada / Nordela Acores

Current Time: Jan 21, 2017 at 7:43:25 am

Latest Report: Jan 21, 2017 at 7:00 am


Visibility: N/A

Pressure: 30.24 "Hg

Humidity: 94%

Dew Point: 57 °F

Location of Ponta DelgadaLocation

Past Weather in Ponta Delgada — Graph

°F

Ponta Delgada Temperature Yesterday

Maximum temperature yesterday: 63 °F (at 11:30 am)
Minimum temperature yesterday: 59 °F (at 8:30 am)
Average temperature yesterday: 61 °F

High & Low Weather Summary for the Past Weeks

 TemperatureHumidityPressure
High66 °F (Jan 7, 12:30 pm)100% (Jan 17, 7:00 am)30.57 "Hg (Jan 17, 7:00 am)
Low52 °F (Jan 19, 8:00 am)64% (Jan 7, 12:30 pm)29.95 "Hg (Jan 6, 6:00 am)
Average60 °F84%30.25 "Hg
* Reported Jan 6 6:00 am — Jan 21 6:30 am, Ponta Delgada, Weather by CustomWeather, © 2017

Note: Actual official high and low records may vary slightly from our data, if they occured in-between our weather recording intervals... More about our weather records

Advertising

Ponta Delgada Weather History for the Previous 24 Hours

Scroll right to see more
 ConditionsComfort  
Time TempWeatherWind HumidityBarometerVisibility
6:30 am
Sat, Jan 21
61 °FPassing clouds.8 mph94%30.24 "HgN/A
6:00 am61 °FPassing clouds.5 mph88%30.24 "HgN/A
5:30 am59 °FPassing clouds.3 mph94%30.24 "HgN/A
5:00 am59 °FPassing clouds.5 mph94%30.21 "HgN/A
4:30 am61 °FPassing clouds.3 mph94%30.21 "HgN/A
4:00 am61 °FPassing clouds.5 mph94%30.21 "HgN/A
3:30 am61 °FPassing clouds.7 mph94%30.24 "HgN/A
3:00 am61 °FPassing clouds.8 mph94%30.24 "HgN/A
2:30 am61 °FPassing clouds.9 mph94%30.24 "HgN/A
2:00 am61 °FPassing clouds.8 mph94%30.24 "HgN/A
1:30 am61 °FPartly cloudy.6 mph94%30.24 "HgN/A
1:00 am61 °FPartly cloudy.7 mph94%30.24 "HgN/A
12:30 am61 °FPartly cloudy.6 mph94%30.24 "HgN/A
12:00 am61 °FPassing clouds.7 mph94%30.24 "HgN/A
11:30 pm
Fri, Jan 20
61 °FPassing clouds.9 mph94%30.24 "HgN/A
11:00 pm61 °FPartly cloudy.9 mph94%30.24 "HgN/A
10:30 pm61 °FPartly cloudy.5 mph88%30.24 "HgN/A
10:00 pm61 °FPassing clouds.6 mph88%30.24 "HgN/A
9:30 pm61 °FPassing clouds.6 mph88%30.24 "HgN/A
9:00 pm61 °FPassing clouds.6 mph88%30.24 "HgN/A
8:30 pm61 °FPartly cloudy.2 mph88%30.24 "HgN/A
8:00 pm59 °FPartly cloudy.6 mph94%30.24 "HgN/A
7:30 pm61 °FPassing clouds.5 mph88%30.21 "HgN/A
7:00 pm61 °FPassing clouds.6 mph88%30.21 "HgN/A
6:30 pm61 °FPassing clouds.7 mph88%30.21 "HgN/A
6:00 pm61 °FPassing clouds.8 mph88%30.21 "HgN/A
5:30 pm61 °FPassing clouds.7 mph88%30.21 "HgN/A
5:00 pm61 °FPassing clouds.9 mph88%30.18 "HgN/A
4:30 pm61 °FPassing clouds.9 mph88%30.18 "HgN/A
4:00 pm61 °FPassing clouds.10 mph88%30.18 "HgN/A
3:30 pm61 °FPassing clouds.12 mph88%30.18 "HgN/A
3:00 pm63 °FPassing clouds.10 mph88%30.18 "HgN/A
2:30 pm61 °FPassing clouds.12 mph88%30.18 "HgN/A
2:00 pm63 °FPassing clouds.12 mph88%30.18 "HgN/A
1:30 pm61 °FPassing clouds.12 mph88%30.18 "HgN/A
1:00 pm63 °FPassing clouds.10 mph83%30.18 "HgN/A
12:30 pm61 °FPassing clouds.10 mph88%30.21 "HgN/A
12:00 pm61 °FPassing clouds.12 mph88%30.21 "HgN/A
11:30 am63 °FPassing clouds.12 mph88%30.24 "HgN/A
11:00 am61 °FScattered clouds.10 mph94%30.24 "HgN/A
10:30 am61 °FScattered clouds.9 mph88%30.24 "HgN/A
10:00 am61 °FScattered clouds.8 mph88%30.21 "HgN/A
9:30 am61 °FScattered clouds.8 mph88%30.21 "HgN/A
9:00 am61 °FScattered showers. Broken clouds.2 mph88%30.21 "HgN/A
8:30 am59 °FScattered showers. Scattered clouds.14 mph100%30.21 "HgN/A
8:00 am61 °FScattered clouds.10 mph88%30.21 "HgN/A
7:30 am61 °FPassing clouds.10 mph88%30.18 "HgN/A
7:00 am61 °FPassing clouds.10 mph88%30.18 "HgN/A
Weather by CustomWeather, © 2017

See weather overviewHow to use our weather pages